When you browse on this site, cookies collect data to enhance your experience and personalize the content and advertising you see.
Visit our Privacy Policy to learn more. By continuing to use the site, you agree to this use of cookies and data.

Hourly Weather Nara

Today, 13 July, Monday

Time Temperature Precipitation Wind Pressure Humidity
00:00 +23°C° 0 mm 2 mps 727 mmHg 67%
01:00 +22°C° 0 mm 1 mps 727 mmHg 68%
02:00 +22°C° 0 mm 1 mps 727 mmHg 69%
03:00 +20°C° 0 mm 0 mps 727 mmHg 69%
04:00 +21°C° 0.5 mm 1 mps 727 mmHg 73%
05:00 +21°C° 0.5 mm 1 mps 728 mmHg 78%
06:00 +20°C° 0.5 mm 1 mps 728 mmHg 82%
07:00 +20°C° 0.6 mm 2 mps 728 mmHg 82%
08:00 +20°C° 0.6 mm 2 mps 728 mmHg 82%
09:00 +20°C° 0 mm 2 mps 728 mmHg 84%
10:00 +21°C° 0.7 mm 2 mps 728 mmHg 83%
11:00 +23°C° 0.7 mm 2 mps 728 mmHg 82%
12:00 +23°C° 0.7 mm 2 mps 728 mmHg 81%
13:00 +23°C° 0.3 mm 2 mps 728 mmHg 82%
14:00 +23°C° 0.3 mm 1 mps 727 mmHg 83%
15:00 +23°C° 0 mm 2 mps 727 mmHg 85%
16:00 +23°C° 1.6 mm 2 mps 727 mmHg 87%
17:00 +23°C° 1.6 mm 2 mps 727 mmHg 89%
18:00 +23°C° 1.6 mm 2 mps 726 mmHg 92%
19:00 +23°C° 2.1 mm 2 mps 726 mmHg 89%
20:00 +23°C° 2.1 mm 2 mps 726 mmHg 86%
21:00 +22°C° 2.1 mm 3 mps 725 mmHg 83%
22:00 +22°C° 0.7 mm 3 mps 725 mmHg 84%
23:00 +22°C° 0.7 mm 4 mps 725 mmHg 86%

Tomorrow, 14 July, Tuesday

Time Temperature Precipitation Wind Pressure Humidity
00:00 +22°C° 0.7 mm 4 mps 725 mmHg 87%
01:00 +22°C° 0.5 mm 4 mps 724 mmHg 87%
02:00 +22°C° 0.5 mm 4 mps 724 mmHg 88%
03:00 +23°C° 0.5 mm 4 mps 723 mmHg 88%
04:00 +24°C° 0.6 mm 3 mps 723 mmHg 88%
05:00 +24°C° 0.6 mm 3 mps 723 mmHg 88%
06:00 +24°C° 0.6 mm 3 mps 723 mmHg 89%
07:00 +24°C° 2.6 mm 3 mps 723 mmHg 89%
08:00 +24°C° 2.6 mm 3 mps 723 mmHg 90%
09:00 +24°C° 2.6 mm 3 mps 723 mmHg 91%
10:00 +23°C° 1.7 mm 4 mps 723 mmHg 91%
11:00 +23°C° 1.7 mm 4 mps 722 mmHg 90%
12:00 +23°C° 1.7 mm 4 mps 722 mmHg 89%
13:00 +23°C° 1.5 mm 5 mps 722 mmHg 85%
14:00 +25°C° 1.5 mm 5 mps 722 mmHg 82%
15:00 +26°C° 1.5 mm 6 mps 721 mmHg 78%
16:00 +25°C° 0.2 mm 5 mps 721 mmHg 80%
17:00 +25°C° 0.2 mm 4 mps 721 mmHg 82%
18:00 +25°C° 0.2 mm 3 mps 721 mmHg 84%
19:00 +24°C° 0.7 mm 2 mps 721 mmHg 86%
20:00 +24°C° 0.7 mm 2 mps 721 mmHg 88%
21:00 +24°C° 0.7 mm 1 mps 721 mmHg 90%
22:00 +24°C° 0.1 mm 2 mps 721 mmHg 87%
23:00 +23°C° 0.1 mm 2 mps 721 mmHg 85%

Day after tomorrow, 15 July, Wednesday

Time Temperature Precipitation Wind Pressure Humidity
00:00 +23°C° 0.1 mm 2 mps 721 mmHg 83%
01:00 +23°C° 0.1 mm 2 mps 720 mmHg 83%
02:00 +21°C° 0.1 mm 3 mps 720 mmHg 83%
03:00 +21°C° 0.1 mm 3 mps 720 mmHg 84%
04:00 +21°C° 0 mm 3 mps 720 mmHg 84%
05:00 +21°C° 0 mm 3 mps 721 mmHg 84%
06:00 +21°C° 0 mm 3 mps 721 mmHg 83%
07:00 +21°C° 0.1 mm 3 mps 721 mmHg 83%
08:00 +22°C° 0.1 mm 4 mps 721 mmHg 83%
09:00 +22°C° 0.1 mm 4 mps 721 mmHg 82%
10:00 +23°C° 0.5 mm 4 mps 721 mmHg 80%
11:00 +23°C° 0.5 mm 4 mps 721 mmHg 78%
12:00 +25°C° 0.5 mm 5 mps 721 mmHg 75%
13:00 +25°C° 0.5 mm 5 mps 721 mmHg 74%
14:00 +26°C° 0.5 mm 4 mps 721 mmHg 72%
15:00 +26°C° 0.5 mm 4 mps 720 mmHg 70%
16:00 +26°C° 0.1 mm 4 mps 721 mmHg 71%
17:00 +26°C° 0.1 mm 4 mps 721 mmHg 72%
18:00 +25°C° 0.1 mm 3 mps 721 mmHg 72%
19:00 +25°C° 0.1 mm 3 mps 721 mmHg 75%
20:00 +24°C° 0.1 mm 3 mps 722 mmHg 77%
21:00 +22°C° 0.1 mm 3 mps 722 mmHg 80%
22:00 +23°C° 0 mm 2 mps 722 mmHg 80%
23:00 +21°C° 0 mm 2 mps 722 mmHg 81%

16 July, Thursday

Time Temperature Precipitation Wind Pressure Humidity
00:00 +21°C° 0 mm 2 mps 723 mmHg 82%
01:00 +21°C° 0 mm 2 mps 722 mmHg 82%
02:00 +21°C° 0 mm 1 mps 722 mmHg 83%
03:00 +21°C° 0 mm 1 mps 722 mmHg 84%
04:00 +21°C° 0 mm 1 mps 723 mmHg 84%
05:00 +21°C° 0 mm 1 mps 723 mmHg 84%
06:00 +22°C° 0 mm 1 mps 724 mmHg 83%
07:00 +23°C° 0 mm 1 mps 724 mmHg 78%
08:00 +22°C° 0 mm 0 mps 724 mmHg 72%
09:00 +24°C° 0 mm 0 mps 724 mmHg 67%
10:00 +27°C° 0 mm 1 mps 724 mmHg 62%
11:00 +28°C° 0 mm 1 mps 724 mmHg 57%
12:00 +29°C° 0 mm 1 mps 724 mmHg 53%
13:00 +29°C° 0.1 mm 1 mps 724 mmHg 55%
14:00 +29°C° 0.1 mm 1 mps 724 mmHg 57%
15:00 +28°C° 0.1 mm 1 mps 724 mmHg 60%
16:00 +27°C° 0.1 mm 2 mps 724 mmHg 63%
17:00 +27°C° 0.1 mm 2 mps 724 mmHg 66%
18:00 +26°C° 0.1 mm 2 mps 724 mmHg 69%
19:00 +25°C° 0 mm 2 mps 724 mmHg 71%
20:00 +25°C° 0 mm 2 mps 724 mmHg 73%
21:00 +24°C° 0 mm 2 mps 725 mmHg 75%
22:00 +24°C° 0.4 mm 1 mps 724 mmHg 78%
23:00 +23°C° 0.4 mm 1 mps 724 mmHg 80%

17 July, Friday

Time Temperature Precipitation Wind Pressure Humidity
00:00 +23°C° 0.4 mm 1 mps 724 mmHg 83%
01:00 +23°C° 0.3 mm 1 mps 724 mmHg 84%
02:00 +23°C° 0.3 mm 1 mps 724 mmHg 84%
03:00 +23°C° 0.3 mm 1 mps 724 mmHg 84%
04:00 +23°C° 0 mm 1 mps 724 mmHg 84%
05:00 +23°C° 0 mm 1 mps 724 mmHg 84%
06:00 +21°C° 0 mm 0 mps 725 mmHg 83%
07:00 +22°C° 0 mm 0 mps 725 mmHg 81%
08:00 +22°C° 0 mm 0 mps 725 mmHg 79%
09:00 +23°C° 0 mm 0 mps 726 mmHg 76%
10:00 +26°C° 0.1 mm 1 mps 726 mmHg 73%
11:00 +27°C° 0.1 mm 1 mps 726 mmHg 71%
12:00 +28°C° 0.1 mm 1 mps 726 mmHg 68%
13:00 +28°C° 0.2 mm 1 mps 726 mmHg 67%
14:00 +28°C° 0.2 mm 1 mps 726 mmHg 66%
15:00 +28°C° 0.2 mm 1 mps 726 mmHg 66%
16:00 +27°C° 0.2 mm 1 mps 726 mmHg 70%
17:00 +26°C° 0.2 mm 2 mps 726 mmHg 74%
18:00 +25°C° 0.2 mm 2 mps 726 mmHg 78%
19:00 +25°C° 0 mm 2 mps 726 mmHg 80%
20:00 +24°C° 0 mm 1 mps 727 mmHg 81%
21:00 +24°C° 0 mm 1 mps 727 mmHg 83%
22:00 +24°C° 0.1 mm 1 mps 727 mmHg 83%
23:00 +24°C° 0.1 mm 1 mps 727 mmHg 84%

18 July, Saturday

Time Temperature Precipitation Wind Pressure Humidity
00:00 +24°C° 0.1 mm 1 mps 727 mmHg 84%
01:00 +23°C° 0 mm 1 mps 727 mmHg 84%
02:00 +23°C° 0 mm 1 mps 727 mmHg 85%
03:00 +21°C° 0 mm 0 mps 727 mmHg 85%
04:00 +23°C° 0 mm 1 mps 727 mmHg 84%
05:00 +24°C° 0 mm 1 mps 727 mmHg 84%
06:00 +24°C° 0 mm 1 mps 727 mmHg 84%
07:00 +25°C° 0 mm 1 mps 728 mmHg 77%
08:00 +25°C° 0 mm 0 mps 728 mmHg 71%
09:00 +27°C° 0 mm 0 mps 729 mmHg 65%
10:00 +29°C° 0.1 mm 1 mps 728 mmHg 65%
11:00 +29°C° 0.1 mm 1 mps 728 mmHg 65%
12:00 +30°C° 0.1 mm 2 mps 728 mmHg 65%
13:00 +30°C° 0.5 mm 2 mps 728 mmHg 66%
14:00 +30°C° 0.5 mm 3 mps 728 mmHg 67%
15:00 +30°C° 0.5 mm 3 mps 728 mmHg 67%
16:00 +29°C° 0.3 mm 3 mps 728 mmHg 70%
17:00 +28°C° 0.3 mm 3 mps 728 mmHg 74%
18:00 +27°C° 0.3 mm 3 mps 728 mmHg 77%
19:00 +27°C° 0.1 mm 3 mps 729 mmHg 78%
20:00 +26°C° 0.1 mm 3 mps 729 mmHg 80%
21:00 +25°C° 0.1 mm 3 mps 729 mmHg 82%
22:00 +25°C° 0 mm 3 mps 729 mmHg 82%
23:00 +25°C° 0 mm 3 mps 729 mmHg 81%
Show more